TimeMDT,TemperatureF,Dew PointF,Humidity,Sea Level PressureIn,VisibilityMPH,Wind Direction,Wind SpeedMPH,Gust SpeedMPH,PrecipitationIn,Events,Conditions,WindDirDegrees,DateUTC
12:15 AM,59.0,46.4,63,30.51,10.0,ESE,3.5,-,N/A,,Overcast,120,2013-09-04 06:15:00
12:35 AM,59.0,48.2,67,30.51,10.0,ESE,3.5,-,N/A,,Overcast,120,2013-09-04 06:35:00
12:55 AM,57.2,46.4,67,30.51,10.0,ESE,4.6,-,N/A,,Mostly Cloudy,120,2013-09-04 06:55:00
1:15 AM,55.4,46.4,72,30.51,10.0,East,3.5,-,N/A,,Scattered Clouds,90,2013-09-04 07:15:00
1:35 AM,57.2,46.4,67,30.51,10.0,SE,5.8,-,N/A,,Scattered Clouds,140,2013-09-04 07:35:00
1:55 AM,57.2,46.4,67,30.52,10.0,ESE,3.5,-,N/A,,Mostly Cloudy,120,2013-09-04 07:55:00
2:15 AM,57.2,46.4,67,30.51,10.0,Calm,Calm,-,N/A,,Overcast,0,2013-09-04 08:15:00
2:35 AM,59.0,46.4,63,30.51,10.0,ESE,3.5,-,N/A,,Mostly Cloudy,120,2013-09-04 08:35:00
2:55 AM,59.0,46.4,63,30.51,10.0,ESE,5.8,-,N/A,,Mostly Cloudy,120,2013-09-04 08:55:00
3:15 AM,59.0,46.4,63,30.52,10.0,ESE,4.6,-,N/A,,Scattered Clouds,120,2013-09-04 09:15:00
3:35 AM,57.2,46.4,67,30.52,10.0,East,4.6,-,N/A,,Scattered Clouds,100,2013-09-04 09:35:00
3:55 AM,57.2,46.4,67,30.53,10.0,ESE,3.5,-,N/A,,Scattered Clouds,110,2013-09-04 09:55:00
4:15 AM,57.2,46.4,67,30.53,10.0,Calm,Calm,-,N/A,,Scattered Clouds,0,2013-09-04 10:15:00
4:35 AM,57.2,46.4,67,30.53,10.0,ESE,4.6,-,N/A,,Clear,120,2013-09-04 10:35:00
4:55 AM,57.2,46.4,67,30.53,10.0,ESE,4.6,-,N/A,,Clear,120,2013-09-04 10:55:00
5:15 AM,57.2,46.4,67,30.53,10.0,ESE,3.5,-,N/A,,Clear,120,2013-09-04 11:15:00
5:35 AM,59.0,46.4,63,30.53,10.0,SE,6.9,-,N/A,,Clear,140,2013-09-04 11:35:00
5:55 AM,57.2,46.4,67,30.53,10.0,ESE,4.6,-,N/A,,Clear,120,2013-09-04 11:55:00
6:15 AM,55.4,46.4,72,30.53,10.0,Calm,Calm,-,N/A,,Clear,0,2013-09-04 12:15:00
6:35 AM,57.2,46.4,67,30.53,10.0,Calm,Calm,-,N/A,,Clear,0,2013-09-04 12:35:00
6:55 AM,57.2,46.4,67,30.54,10.0,Calm,Calm,-,N/A,,Clear,0,2013-09-04 12:55:00
7:15 AM,57.2,46.4,67,30.55,10.0,ESE,3.5,-,N/A,,Clear,110,2013-09-04 13:15:00
7:35 AM,57.2,46.4,67,30.55,10.0,Calm,Calm,-,N/A,,Clear,0,2013-09-04 13:35:00
7:55 AM,57.2,46.4,67,30.56,10.0,Calm,Calm,-,N/A,,Clear,0,2013-09-04 13:55:00
8:15 AM,57.2,46.4,67,30.56,10.0,Calm,Calm,-,N/A,,Clear,0,2013-09-04 14:15:00
8:35 AM,60.8,46.4,59,30.56,10.0,Calm,Calm,-,N/A,,Clear,0,2013-09-04 14:35:00
8:55 AM,62.6,48.2,59,30.56,10.0,Calm,Calm,-,N/A,,Clear,0,2013-09-04 14:55:00
9:15 AM,64.4,46.4,52,30.57,10.0,Calm,Calm,-,N/A,,Clear,0,2013-09-04 15:15:00
9:35 AM,64.4,46.4,52,30.57,10.0,Calm,Calm,-,N/A,,Clear,0,2013-09-04 15:35:00
9:55 AM,66.2,46.4,49,30.57,10.0,Calm,Calm,-,N/A,,Clear,0,2013-09-04 15:55:00
10:15 AM,68.0,44.6,43,30.57,10.0,Calm,Calm,-,N/A,,Clear,0,2013-09-04 16:15:00
10:35 AM,69.8,42.8,38,30.57,10.0,West,3.5,-,N/A,,Clear,260,2013-09-04 16:35:00
10:55 AM,71.6,42.8,35,30.57,10.0,West,4.6,-,N/A,,Clear,270,2013-09-04 16:55:00
11:15 AM,73.4,42.8,33,30.56,10.0,West,5.8,-,N/A,,Clear,260,2013-09-04 17:15:00
11:35 AM,73.4,41.0,31,30.55,10.0,WSW,4.6,-,N/A,,Clear,250,2013-09-04 17:35:00
11:55 AM,73.4,41.0,31,30.55,10.0,West,6.9,-,N/A,,Clear,260,2013-09-04 17:55:00
12:15 PM,73.4,44.6,36,30.55,10.0,West,8.1,-,N/A,,Clear,270,2013-09-04 18:15:00
12:35 PM,73.4,44.6,36,30.54,10.0,WSW,8.1,-,N/A,,Scattered Clouds,250,2013-09-04 18:35:00
12:55 PM,73.4,44.6,36,30.53,10.0,West,8.1,-,N/A,,Scattered Clouds,260,2013-09-04 18:55:00
1:15 PM,73.4,44.6,36,30.53,10.0,West,9.2,-,N/A,,Mostly Cloudy,260,2013-09-04 19:15:00
1:35 PM,73.4,44.6,36,30.53,10.0,West,3.5,-,N/A,,Mostly Cloudy,280,2013-09-04 19:35:00
1:55 PM,73.4,44.6,36,30.53,10.0,West,10.4,-,N/A,,Scattered Clouds,260,2013-09-04 19:55:00
2:15 PM,71.6,44.6,38,30.53,10.0,SW,4.6,-,N/A,Rain-Thunderstorm,Light Thunderstorms and Rain,230,2013-09-04 20:15:00
2:35 PM,75.2,44.6,34,30.52,10.0,WSW,11.5,-,N/A,Thunderstorm,Thunderstorm,250,2013-09-04 20:35:00
2:55 PM,73.4,44.6,36,30.51,10.0,West,8.1,-,N/A,Thunderstorm,Thunderstorm,260,2013-09-04 20:55:00
3:15 PM,75.2,42.8,31,30.51,10.0,SSW,3.5,-,N/A,Thunderstorm,Clear,210,2013-09-04 21:15:00
3:35 PM,73.4,44.6,36,30.50,10.0,West,10.4,16.1,N/A,Thunderstorm,Clear,280,2013-09-04 21:35:00
3:55 PM,77.0,44.6,32,30.49,10.0,West,9.2,-,N/A,Thunderstorm,Thunderstorm,270,2013-09-04 21:55:00
4:15 PM,73.4,44.6,36,30.49,10.0,West,15.0,18.4,N/A,Thunderstorm,Thunderstorm,260,2013-09-04 22:15:00
4:35 PM,71.6,46.4,41,30.49,10.0,WSW,13.8,23.0,N/A,Thunderstorm,Thunderstorm,250,2013-09-04 22:35:00
4:55 PM,71.6,46.4,41,30.50,10.0,West,9.2,-,N/A,Thunderstorm,Thunderstorm,280,2013-09-04 22:55:00
5:15 PM,69.8,50.0,49,30.50,10.0,Calm,Calm,-,N/A,Thunderstorm,Thunderstorm,0,2013-09-04 23:15:00
5:35 PM,68.0,51.8,56,30.51,10.0,East,11.5,-,N/A,Rain-Thunderstorm,Light Thunderstorms and Rain,90,2013-09-04 23:35:00
5:55 PM,64.4,51.8,64,30.52,10.0,Calm,Calm,-,N/A,Rain-Thunderstorm,Light Thunderstorms and Rain,0,2013-09-04 23:55:00
6:15 PM,62.6,50.0,63,30.52,10.0,Calm,Calm,-,N/A,Rain-Thunderstorm,Light Thunderstorms and Rain,0,2013-09-05 00:15:00
6:35 PM,62.6,53.6,72,30.53,10.0,Calm,Calm,-,N/A,Rain-Thunderstorm,Light Thunderstorms and Rain,0,2013-09-05 00:35:00
6:55 PM,60.8,53.6,77,30.53,10.0,Calm,Calm,-,0.01,Rain-Thunderstorm,Light Thunderstorms and Rain,0,2013-09-05 00:55:00
7:15 PM,60.8,55.4,82,30.53,10.0,Calm,Calm,-,N/A,Thunderstorm,Overcast,0,2013-09-05 01:15:00
7:35 PM,59.0,53.6,82,30.53,10.0,ENE,3.5,-,N/A,,Mostly Cloudy,70,2013-09-05 01:35:00
7:55 PM,60.8,55.4,82,30.53,10.0,East,3.5,-,N/A,,Light Drizzle,90,2013-09-05 01:55:00
8:15 PM,59.0,55.4,88,30.53,10.0,SE,5.8,-,N/A,,Mostly Cloudy,140,2013-09-05 02:15:00
8:35 PM,59.0,55.4,88,30.53,10.0,ESE,5.8,-,N/A,,Clear,120,2013-09-05 02:35:00
8:55 PM,57.2,53.6,88,30.54,10.0,ESE,8.1,-,N/A,,Clear,110,2013-09-05 02:55:00
9:15 PM,59.0,51.8,77,30.53,10.0,ESE,6.9,-,N/A,,Clear,120,2013-09-05 03:15:00
9:35 PM,57.2,51.8,82,30.53,10.0,ESE,3.5,-,N/A,,Clear,110,2013-09-05 03:35:00
9:55 PM,57.2,51.8,82,30.53,10.0,ESE,6.9,-,N/A,,Clear,120,2013-09-05 03:55:00
10:15 PM,55.4,50.0,82,30.54,10.0,Calm,Calm,-,N/A,,Clear,0,2013-09-05 04:15:00
10:35 PM,55.4,51.8,88,30.55,10.0,ESE,9.2,-,N/A,,Clear,110,2013-09-05 04:35:00
10:55 PM,55.4,51.8,88,30.55,10.0,SE,5.8,-,N/A,Thunderstorm,Scattered Clouds,130,2013-09-05 04:55:00
11:15 PM,55.4,50.0,82,30.55,10.0,ESE,8.1,-,N/A,Thunderstorm,Thunderstorm,110,2013-09-05 05:15:00
11:35 PM,55.4,50.0,82,30.55,10.0,East,4.6,-,N/A,Thunderstorm,Mostly Cloudy,90,2013-09-05 05:35:00
11:55 PM,55.4,50.0,82,30.57,10.0,ENE,3.5,-,N/A,Rain-Thunderstorm,Light Thunderstorms and Rain,60,2013-09-05 05:55:00